Simultaneous Nadir Overpasses (SNOs) Predictions

Prediction of SNOs between NOAA-19 and TERRA Satellite Orbit:

Table of predicted SNOs for the next 14.0 days since TLE Epoch: 9/1/2018
Index Date (NOAA-19) Time (NOAA-19) Lat,Lon (NOAA-19) SZA (NOAA-19 ) Date (TERRA) Time (TERRA) Lat,Lon (TERRA) SZA (TERRA ) Distance(km) Time Diff (sec)
1 09/02/2018 16:43:31 -77.42, 126.73 109.78 09/02/2018 16:43:26 -77.44, 126.82 109.76 2.91 5
2 09/04/2018 22:17:07 77.44,-136.68 71.08 09/04/2018 22:17:09 77.42,-136.67 71.06 2.08 2
3 09/07/2018 03:50:38 -77.47, -40.11 108.07 09/07/2018 03:50:52 -77.46, -39.95 108.06 3.75 14
4 09/07/2018 04:41:32 77.12, 128.80 71.75 09/07/2018 04:40:24 77.18, 126.57 71.61 55.63 68
5 09/09/2018 09:24:12 77.46, 56.62 72.79 09/09/2018 09:24:34 77.48, 56.70 72.82 3.04 22
6 09/09/2018 10:15:10 -77.41,-135.89 107.23 09/09/2018 10:14:03 -77.40,-135.99 107.27 2.74 67
7 09/11/2018 14:57:44 -77.48, 153.20 106.34 09/11/2018 14:58:18 -77.47, 153.23 106.34 1.31 34
8 09/11/2018 15:48:44 77.43, -39.31 73.65 09/11/2018 15:47:45 77.41, -39.36 73.61 2.39 59
9 09/13/2018 20:31:17 77.49,-110.16 74.54 09/13/2018 20:32:00 77.48,-110.16 74.54 1.15 43




NCC Satellite Simultaneous Nadir Overpasses (SNOs) Prediction Service
